Back to catalog

CZ-3C DEB

AliveGTO
NORAD 40819·DEBRIS·🇨🇳 China

Launched Oct 31, 2010 from Xichang Satellite Launch Center

Loading…

TLE

StaleSource: Space-Track

Epoch: Sep 11, 2026, 11:46 UTC

1 40819U 10057AL  26254.49058416 -.00000309  00000-0 -82629-3 0  9995
2 40819  20.6325 310.7789 7114269  60.6941 351.3783  2.32542136 98705

Track CZ-3C DEB in real time with AllMySat

Download on the App Store